This is the latest recevied weather packets stored in our database for station/object K5FEP. If no packets are shown the sender has not sent any weather packets the latest 10 day(s).
| Time | Temp. | Humidity | Pressure | Rain* | Wind** | Luminosity | Snow |
|---|---|---|---|---|---|---|---|
| 1787920346 | 21.67° C | 91% | 1016 hPa | 0 mm | - | 89 W/m² | - |
| 1787920043 | 21.11° C | 93% | 1016 hPa | 0 mm | - | 88 W/m² | - |
| 1787919739 | 21.11° C | 94% | 1016.1 hPa | 0 mm | - | 71 W/m² | - |
| 1787919437 | 20.56° C | 96% | 1016.1 hPa | 0 mm | - | 66 W/m² | - |
| 1787919133 | 20.56° C | 97% | 1015.8 hPa | 0 mm | - | 66 W/m² | - |
| 1787918833 | 20.56° C | 97% | 1015.9 hPa | 0 mm | - | 51 W/m² | - |
| 1787918528 | 20° C | 97% | 1015.9 hPa | 0 mm | - | 56 W/m² | - |
| 1787918227 | 20° C | 97% | 1015.8 hPa | 0 mm | - | 46 W/m² | - |
| 1787917926 | 20° C | 97% | 1015.9 hPa | 0 mm | - | 42 W/m² | - |
| 1787917622 | 20° C | 97% | 1016.1 hPa | 0 mm | - | 39 W/m² | - |
| 1787917318 | 19.44° C | 97% | 1016 hPa | 0 mm | - | 36 W/m² | - |
| 1787917017 | 19.44° C | 97% | 1015.7 hPa | 0 mm | - | 34 W/m² | - |
| 1787916712 | 19.44° C | 97% | 1015.9 hPa | 0 mm | - | 30 W/m² | - |
| 1787916407 | 19.44° C | 97% | 1015.8 hPa | 0 mm | - | 24 W/m² | - |
| 1787916103 | 19.44° C | 97% | 1015.8 hPa | 0 mm | - | 21 W/m² | - |
| 1787915797 | 19.44° C | 97% | 1015.7 hPa | 0 mm | - | 19 W/m² | - |
| 1787915492 | 19.44° C | 97% | 1015.7 hPa | 0 mm | - | 16 W/m² | - |
| 1787915187 | 19.44° C | 97% | 1015.9 hPa | 0 mm | - | 13 W/m² | - |
| 1787914887 | 19.44° C | 97% | 1015.6 hPa | 0 mm | - | 11 W/m² | - |
| 1787914585 | 19.44° C | 97% | 1015.5 hPa | 0 mm | - | 7 W/m² | - |
| 1787914281 | 19.44° C | 97% | 1015.7 hPa | 0 mm | - | 5 W/m² | - |
| 1787913980 | 20° C | 97% | 1015.4 hPa | 0 mm | - | 3 W/m² | - |
| 1787913680 | 20° C | 97% | 1015.1 hPa | 0 mm | - | 2 W/m² | - |
| 1787913380 | 20° C | 97% | 1015.3 hPa | 0 mm | - | 1 W/m² | - |
| 1787913075 | 20° C | 97% | 1015.1 hPa | 0 mm | - | 0 W/m² | - |
* Rain latest hour (hover to see other rain measurements)
** Current wind speed in m/s (hover to see current wind gust speed)